Location: Adaghas
(31.2259°N, 9.0496°W)
Time: 04:09:59
(UTC+00:00)

Cosmos 2034 Rocket - Pass Details

Date: 18 September 2020
Orbit: 957 x 1002 km, 82.9° (Epoch: 23 October)

Event Time Altitude Azimuth Distance (km) Brightness Sun altitude
Rises 20:33:51 0° 192° (SSW) 3,707 7.0 -25.3°
Reaches altitude 10° 20:36:23 10° 195° (SSW) 2,762 6.3 -25.8°
Maximum altitude 20:42:42 66° 277° (W) 1,086 4.3 -27.0°
Drops below altitude 10° 20:49:01 10° 359° (N) 2,769 6.6 -28.3°
Sets 20:51:35 0° 2° (N) 3,718 7.3 -28.8°
